Time,TemperatureF,DewpointF,PressureIn,WindDirection,WindDirectionDegrees,WindSpeedMPH,WindSpeedGustMPH,Humidity,HourlyPrecipIn,Conditions,Clouds,dailyrainin,SoftwareType,DateUTC
2013-11-04 00:00:00,43.0,37.3,30.22,SE,135,6.0,15.0,83,0.00,,OVC037,0.00,VWS V14.01,2013-11-04 06:00:00,
2013-11-04 00:05:00,42.1,37.0,30.21,SE,131,8.0,13.0,83,0.00,,,0.00,weatherlink.com 1.10,2013-11-04 06:05:00,
2013-11-04 00:20:00,42.2,37.0,30.20,ESE,112,12.0,16.0,82,0.00,,,0.00,weatherlink.com 1.10,2013-11-04 06:20:00,
2013-11-04 00:30:00,43.0,37.2,30.21,SE,135,7.0,16.0,83,0.00,,OVC037,0.00,VWS V14.01,2013-11-04 06:30:00,
2013-11-04 00:39:00,41.9,37.0,30.20,East,85,8.0,11.0,83,0.00,,,0.00,weatherlink.com 1.10,2013-11-04 06:39:00,
2013-11-04 00:51:00,41.8,37.0,30.21,SE,136,6.0,11.0,83,0.00,,,0.00,weatherlink.com 1.10,2013-11-04 06:51:00,
2013-11-04 01:00:00,42.0,37.0,30.20,SE,135,6.0,14.0,83,0.00,,OVC037,0.00,VWS V14.01,2013-11-04 07:00:00,
2013-11-04 01:07:00,41.7,37.0,30.20,SSE,155,6.0,12.0,83,0.00,,,0.00,weatherlink.com 1.10,2013-11-04 07:07:00,
2013-11-04 01:21:00,41.5,37.0,30.18,SE,131,5.0,11.0,83,0.00,,,0.00,weatherlink.com 1.10,2013-11-04 07:21:00,
2013-11-04 01:30:00,42.0,37.0,30.20,SE,135,6.0,14.0,84,0.00,,OVC037,0.00,VWS V14.01,2013-11-04 07:30:00,
2013-11-04 01:36:00,41.5,37.0,30.20,ESE,109,8.0,12.0,84,0.00,,,0.00,weatherlink.com 1.10,2013-11-04 07:36:00,
2013-11-04 01:51:00,41.2,37.0,30.20,ESE,111,7.0,10.0,84,0.00,,,0.00,weatherlink.com 1.10,2013-11-04 07:51:00,
2013-11-04 02:00:00,42.0,36.8,30.20,SE,135,6.0,14.0,84,0.00,,OVC037,0.00,VWS V14.01,2013-11-04 08:00:00,
2013-11-04 02:06:00,41.4,37.0,30.20,ESE,123,7.0,12.0,84,0.00,,,0.00,weatherlink.com 1.10,2013-11-04 08:06:00,
2013-11-04 02:21:00,41.8,37.0,30.19,East,95,9.0,15.0,83,0.00,,,0.00,weatherlink.com 1.10,2013-11-04 08:21:00,
2013-11-04 02:30:00,42.0,37.1,30.19,SE,135,7.0,16.0,83,0.00,,OVC037,0.00,VWS V14.01,2013-11-04 08:30:00,
2013-11-04 02:36:00,41.9,37.0,30.20,ESE,121,3.0,15.0,82,0.00,,,0.00,weatherlink.com 1.10,2013-11-04 08:36:00,
2013-11-04 02:51:00,42.0,37.0,30.21,SE,146,3.0,12.0,82,0.00,,,0.00,weatherlink.com 1.10,2013-11-04 08:51:00,
2013-11-04 03:00:00,43.0,36.7,30.21,SE,135,5.0,14.0,82,0.00,,OVC037,0.00,VWS V14.01,2013-11-04 09:00:00,
2013-11-04 03:06:00,42.0,37.0,30.20,East,101,5.0,11.0,81,0.00,,,0.00,weatherlink.com 1.10,2013-11-04 09:06:00,
2013-11-04 03:21:00,42.1,37.0,30.20,SE,145,8.0,14.0,81,0.00,,,0.00,weatherlink.com 1.10,2013-11-04 09:21:00,
2013-11-04 03:30:00,43.0,36.6,30.19,SE,135,6.0,14.0,82,0.00,,OVC037,0.00,VWS V14.01,2013-11-04 09:30:00,
2013-11-04 03:36:00,42.0,37.0,30.19,SE,138,10.0,12.0,81,0.00,,,0.00,weatherlink.com 1.10,2013-11-04 09:36:00,
2013-11-04 03:51:00,41.9,37.0,30.19,ESE,119,9.0,13.0,81,0.00,,,0.00,weatherlink.com 1.10,2013-11-04 09:51:00,
2013-11-04 04:00:00,42.0,36.3,30.19,SE,135,6.0,14.0,82,0.00,,OVC037,0.00,VWS V14.01,2013-11-04 10:00:00,
2013-11-04 04:06:00,41.7,36.0,30.19,SE,128,4.0,10.0,81,0.00,,,0.00,weatherlink.com 1.10,2013-11-04 10:06:00,
2013-11-04 04:21:00,41.6,37.0,30.20,SE,140,5.0,9.0,82,0.00,,,0.00,weatherlink.com 1.10,2013-11-04 10:21:00,
2013-11-04 04:30:00,42.0,36.4,30.19,SE,135,5.0,12.0,82,0.00,,OVC037,0.00,VWS V14.01,2013-11-04 10:30:00,
2013-11-04 04:36:00,41.5,36.0,30.18,SE,142,2.0,10.0,82,0.00,,,0.00,weatherlink.com 1.10,2013-11-04 10:36:00,
2013-11-04 04:51:00,41.3,37.0,30.17,SE,132,5.0,14.0,83,0.00,,,0.00,weatherlink.com 1.10,2013-11-04 10:51:00,
2013-11-04 05:00:00,42.0,36.6,30.17,SE,135,6.0,15.0,83,0.00,,OVC037,0.00,VWS V14.01,2013-11-04 11:00:00,
2013-11-04 05:06:00,41.5,37.0,30.17,SE,140,5.0,12.0,83,0.00,,,0.00,weatherlink.com 1.10,2013-11-04 11:06:00,
2013-11-04 05:21:00,41.7,37.0,30.16,SE,127,5.0,13.0,82,0.00,,,0.00,weatherlink.com 1.10,2013-11-04 11:21:00,
2013-11-04 05:30:00,42.0,36.6,30.16,SE,135,6.0,14.0,83,0.00,,OVC037,0.00,VWS V14.01,2013-11-04 11:30:00,
2013-11-04 05:36:00,41.7,37.0,30.16,ESE,102,9.0,14.0,82,0.00,,,0.00,weatherlink.com 1.10,2013-11-04 11:36:00,
2013-11-04 05:51:00,41.7,37.0,30.15,South,169,4.0,15.0,83,0.00,,,0.00,weatherlink.com 1.10,2013-11-04 11:51:00,
2013-11-04 06:00:00,42.0,36.6,30.16,SE,135,7.0,15.0,83,0.00,,OVC037,0.00,VWS V14.01,2013-11-04 12:00:00,
2013-11-04 06:06:00,41.8,37.0,30.16,ESE,120,4.0,12.0,82,0.00,,,0.00,weatherlink.com 1.10,2013-11-04 12:06:00,
2013-11-04 06:21:00,41.8,37.0,30.16,SSE,167,7.0,14.0,82,0.00,,,0.00,weatherlink.com 1.10,2013-11-04 12:21:00,
2013-11-04 06:30:00,42.0,36.7,30.15,SE,135,7.0,14.0,83,0.00,,OVC037,0.00,VWS V14.01,2013-11-04 12:30:00,
2013-11-04 06:36:00,41.7,37.0,30.16,ESE,121,7.0,13.0,82,0.00,,,0.00,weatherlink.com 1.10,2013-11-04 12:36:00,
2013-11-04 06:51:00,41.6,37.0,30.15,SSE,161,7.0,12.0,83,0.00,,,0.00,weatherlink.com 1.10,2013-11-04 12:51:00,
2013-11-04 07:00:00,42.0,36.9,30.15,SE,135,6.0,14.0,83,0.00,,OVC037,0.00,VWS V14.01,2013-11-04 13:00:00,
2013-11-04 07:06:00,41.8,37.0,30.15,SE,126,10.0,14.0,83,0.00,,,0.00,weatherlink.com 1.10,2013-11-04 13:06:00,
2013-11-04 07:21:00,42.2,37.0,30.15,South,176,5.0,18.0,83,0.00,,,0.00,weatherlink.com 1.10,2013-11-04 13:21:00,
2013-11-04 07:30:00,43.0,37.4,30.16,SE,135,7.0,18.0,83,0.00,,OVC037,0.00,VWS V14.01,2013-11-04 13:30:00,
2013-11-04 07:36:00,42.6,38.0,30.15,SE,127,4.0,12.0,82,0.00,,,0.00,weatherlink.com 1.10,2013-11-04 13:36:00,
2013-11-04 07:51:00,43.4,38.0,30.14,ESE,123,9.0,17.0,81,0.00,,,0.00,weatherlink.com 1.10,2013-11-04 13:51:00,
2013-11-04 08:00:00,44.0,37.8,30.14,SE,135,8.0,15.0,81,0.00,,OVC037,0.00,VWS V14.01,2013-11-04 14:00:00,
2013-11-04 08:06:00,43.8,38.0,30.14,SE,135,9.0,14.0,80,0.00,,,0.00,weatherlink.com 1.10,2013-11-04 14:06:00,
2013-11-04 08:21:00,44.2,38.0,30.14,East,97,11.0,20.0,79,0.00,,,0.00,weatherlink.com 1.10,2013-11-04 14:21:00,
2013-11-04 08:30:00,45.0,38.5,30.14,SE,135,9.0,20.0,80,0.00,,OVC037,0.00,VWS V14.01,2013-11-04 14:30:00,
2013-11-04 08:36:00,44.9,38.0,30.14,SSE,156,12.0,17.0,78,0.00,,,0.00,weatherlink.com 1.10,2013-11-04 14:36:00,
2013-11-04 08:51:00,46.1,39.0,30.14,ENE,77,8.0,24.0,75,0.00,,,0.00,weatherlink.com 1.10,2013-11-04 14:51:00,
2013-11-04 09:00:00,47.0,38.8,30.14,SE,135,9.0,24.0,76,0.00,,OVC037,0.00,VWS V14.01,2013-11-04 15:00:00,
2013-11-04 09:06:00,46.8,39.0,30.13,SE,143,12.0,18.0,74,0.00,,,0.00,weatherlink.com 1.10,2013-11-04 15:06:00,
2013-11-04 09:21:00,48.0,39.0,30.13,SSE,160,11.0,19.0,72,0.00,,,0.00,weatherlink.com 1.10,2013-11-04 15:21:00,
2013-11-04 09:30:00,50.0,39.2,30.13,SSE,158,9.0,21.0,71,0.00,,OVC037,0.00,VWS V14.01,2013-11-04 15:30:00,
2013-11-04 09:37:00,49.1,39.0,30.13,South,173,5.0,26.0,69,0.00,,,0.00,weatherlink.com 1.10,2013-11-04 15:37:00,
2013-11-04 09:52:00,49.5,39.0,30.12,SE,142,13.0,21.0,68,0.00,,,0.00,weatherlink.com 1.10,2013-11-04 15:52:00,
2013-11-04 10:00:00,51.0,39.5,30.12,SSE,158,10.0,26.0,70,0.00,,OVC037,0.00,VWS V14.01,2013-11-04 16:00:00,
2013-11-04 10:07:00,49.5,39.0,30.12,SSE,153,7.0,25.0,68,0.00,,,0.00,weatherlink.com 1.10,2013-11-04 16:07:00,
2013-11-04 10:22:00,49.9,40.0,30.13,SW,217,14.0,23.0,68,0.00,,,0.00,weatherlink.com 1.10,2013-11-04 16:22:00,
2013-11-04 10:30:00,51.0,39.8,30.12,SSE,158,9.0,24.0,70,0.00,,OVC037,0.00,VWS V14.01,2013-11-04 16:30:00,
2013-11-04 10:37:00,49.8,40.0,30.12,SSE,163,8.0,22.0,68,0.00,,,0.00,weatherlink.com 1.10,2013-11-04 16:37:00,
2013-11-04 10:52:00,49.7,39.0,30.10,SW,215,4.0,19.0,68,0.00,,,0.00,weatherlink.com 1.10,2013-11-04 16:52:00,
2013-11-04 11:00:00,51.0,40.0,30.10,SSE,158,9.0,21.0,70,0.00,,OVC037,0.00,VWS V14.01,2013-11-04 17:00:00,
2013-11-04 11:07:00,50.4,40.0,30.10,SSW,193,7.0,18.0,68,0.00,,,0.00,weatherlink.com 1.10,2013-11-04 17:07:00,
2013-11-04 11:22:00,51.3,41.0,30.09,SSW,194,10.0,22.0,67,0.00,,,0.00,weatherlink.com 1.10,2013-11-04 17:22:00,
2013-11-04 11:30:00,53.0,40.8,30.09,SSE,158,9.0,21.0,68,0.00,,OVC037,0.00,VWS V14.01,2013-11-04 17:30:00,
2013-11-04 11:37:00,52.6,41.0,30.09,SSW,213,4.0,21.0,64,0.00,,,0.00,weatherlink.com 1.10,2013-11-04 17:37:00,
2013-11-04 11:52:00,53.4,40.0,30.08,SSE,165,15.0,22.0,61,0.00,,,0.00,weatherlink.com 1.10,2013-11-04 17:52:00,
2013-11-04 12:00:00,55.0,40.2,30.08,SSE,158,11.0,22.0,63,0.00,,OVC037,0.00,VWS V14.01,2013-11-04 18:00:00,
2013-11-04 12:07:00,54.3,40.0,30.07,South,172,12.0,20.0,60,0.00,,,0.00,weatherlink.com 1.10,2013-11-04 18:07:00,
2013-11-04 12:22:00,54.2,40.0,30.07,South,178,15.0,20.0,60,0.00,,,0.00,weatherlink.com 1.10,2013-11-04 18:22:00,
2013-11-04 12:30:00,55.0,40.8,30.06,SSW,202,10.0,23.0,63,0.00,,OVC037,0.00,VWS V14.01,2013-11-04 18:30:00,
2013-11-04 12:37:00,53.9,41.0,30.06,South,169,12.0,26.0,61,0.00,,,0.00,weatherlink.com 1.10,2013-11-04 18:37:00,
2013-11-04 12:52:00,54.9,41.0,30.06,SSW,200,7.0,18.0,61,0.00,,,0.00,weatherlink.com 1.10,2013-11-04 18:52:00,
2013-11-04 13:00:00,56.0,40.8,30.06,SSW,202,11.0,25.0,61,0.00,,OVC037,0.00,VWS V14.01,2013-11-04 19:00:00,
2013-11-04 13:07:00,55.3,41.0,30.06,SSE,156,11.0,21.0,58,0.00,,,0.00,weatherlink.com 1.10,2013-11-04 19:07:00,
2013-11-04 13:22:00,56.1,41.0,30.05,South,186,13.0,25.0,57,0.00,,,0.00,weatherlink.com 1.10,2013-11-04 19:22:00,
2013-11-04 13:30:00,56.0,41.6,30.04,SSW,202,12.0,23.0,62,0.00,,OVC037,0.00,VWS V14.01,2013-11-04 19:30:00,
2013-11-04 13:37:00,54.8,42.0,30.05,South,173,3.0,22.0,62,0.00,,,0.00,weatherlink.com 1.10,2013-11-04 19:37:00,
2013-11-04 13:52:00,55.8,42.0,30.05,SSW,200,13.0,23.0,60,0.00,,,0.00,weatherlink.com 1.10,2013-11-04 19:52:00,
2013-11-04 14:00:00,56.0,42.5,30.05,SSW,202,11.0,23.0,63,0.00,,OVC037,0.00,VWS V14.01,2013-11-04 20:00:00,
2013-11-04 14:07:00,55.2,42.0,30.04,South,176,8.0,21.0,62,0.00,,,0.00,weatherlink.com 1.10,2013-11-04 20:07:00,
2013-11-04 14:22:00,55.8,43.0,30.04,SSW,199,11.0,21.0,62,0.00,,,0.00,weatherlink.com 1.10,2013-11-04 20:22:00,
2013-11-04 14:30:00,56.0,43.1,30.04,SSW,202,9.0,22.0,64,0.00,,OVC037,0.00,VWS V14.01,2013-11-04 20:30:00,
2013-11-04 14:37:00,55.5,42.0,30.04,SW,227,10.0,24.0,61,0.00,,,0.00,weatherlink.com 1.10,2013-11-04 20:37:00,
2013-11-04 14:52:00,55.3,43.0,30.04,SSE,148,5.0,17.0,64,0.00,,,0.00,weatherlink.com 1.10,2013-11-04 20:52:00,
2013-11-04 15:00:00,56.0,43.2,30.03,SSW,202,9.0,23.0,66,0.00,,OVC037,0.00,VWS V14.01,2013-11-04 21:00:00,
2013-11-04 15:07:00,55.2,43.0,30.03,SSE,156,12.0,16.0,64,0.00,,,0.00,weatherlink.com 1.10,2013-11-04 21:07:00,
2013-11-04 15:22:00,55.0,42.0,30.04,SW,227,16.0,17.0,63,0.00,,,0.00,weatherlink.com 1.10,2013-11-04 21:22:00,
2013-11-04 15:30:00,56.0,42.9,30.04,SSW,202,10.0,21.0,65,0.00,,OVC037,0.00,VWS V14.01,2013-11-04 21:30:00,
2013-11-04 15:37:00,55.5,43.0,30.04,SSW,206,7.0,21.0,63,0.00,,,0.00,weatherlink.com 1.10,2013-11-04 21:37:00,
2013-11-04 15:52:00,55.5,43.0,30.05,South,187,16.0,18.0,64,0.00,,,0.00,weatherlink.com 1.10,2013-11-04 21:52:00,
2013-11-04 16:00:00,55.0,43.2,30.05,SSW,202,10.0,20.0,67,0.00,,OVC037,0.00,VWS V14.01,2013-11-04 22:00:00,
2013-11-04 16:07:00,54.8,43.0,30.05,SSW,207,5.0,18.0,65,0.00,,,0.00,weatherlink.com 1.10,2013-11-04 22:07:00,
2013-11-04 16:22:00,53.9,43.0,30.05,SSW,196,7.0,13.0,67,0.00,,,0.00,weatherlink.com 1.10,2013-11-04 22:22:00,
2013-11-04 16:30:00,54.0,43.4,30.06,SSW,202,7.0,18.0,70,0.00,,OVC037,0.00,VWS V14.01,2013-11-04 22:30:00,
2013-11-04 16:37:00,53.6,44.0,30.06,SSW,199,4.0,10.0,69,0.00,,,0.00,weatherlink.com 1.10,2013-11-04 22:37:00,
2013-11-04 16:52:00,53.4,43.0,30.06,SSW,209,4.0,12.0,69,0.00,,,0.00,weatherlink.com 1.10,2013-11-04 22:52:00,
2013-11-04 17:00:00,54.0,43.9,30.06,SSW,202,5.0,13.0,71,0.00,,OVC037,0.00,VWS V14.01,2013-11-04 23:00:00,
2013-11-04 17:07:00,53.3,44.0,30.06,SSW,202,4.0,7.0,70,0.00,,,0.00,weatherlink.com 1.10,2013-11-04 23:07:00,
2013-11-04 17:22:00,53.0,44.0,30.07,SSW,198,4.0,8.0,71,0.00,,,0.00,weatherlink.com 1.10,2013-11-04 23:22:00,
2013-11-04 17:30:00,53.0,44.2,30.07,SSW,202,4.0,10.0,73,0.00,,OVC037,0.00,VWS V14.01,2013-11-04 23:30:00,
2013-11-04 17:37:00,53.0,44.0,30.07,SSE,157,4.0,11.0,72,0.00,,,0.00,weatherlink.com 1.10,2013-11-04 23:37:00,
2013-11-04 17:52:00,53.0,44.0,30.08,SSE,149,8.0,11.0,72,0.00,,,0.00,weatherlink.com 1.10,2013-11-04 23:52:00,
2013-11-04 18:00:00,53.0,44.2,30.08,SSW,202,5.0,12.0,74,0.00,,OVC037,0.00,VWS V14.01,2013-11-05 00:00:00,
2013-11-04 18:07:00,53.0,44.0,30.09,SSW,209,8.0,11.0,72,0.00,,,0.00,weatherlink.com 1.10,2013-11-05 00:07:00,
2013-11-04 18:22:00,52.9,44.0,30.09,SW,227,7.0,12.0,72,0.00,,,0.00,weatherlink.com 1.10,2013-11-05 00:22:00,
2013-11-04 18:30:00,53.0,44.2,30.09,SSW,202,6.0,13.0,73,0.00,,OVC037,0.00,VWS V14.01,2013-11-05 00:30:00,
2013-11-04 18:37:00,52.9,44.0,30.10,SSE,163,2.0,11.0,72,0.00,,,0.00,weatherlink.com 1.10,2013-11-05 00:37:00,
2013-11-04 18:52:00,53.0,44.0,30.10,SSE,163,9.0,14.0,72,0.00,,,0.00,weatherlink.com 1.10,2013-11-05 00:52:00,
2013-11-04 19:00:00,53.0,44.2,30.10,SSW,202,6.0,15.0,73,0.00,,OVC037,0.00,VWS V14.01,2013-11-05 01:00:00,
2013-11-04 19:07:00,53.0,45.0,30.11,SSW,211,14.0,17.0,73,0.00,,,0.00,weatherlink.com 1.10,2013-11-05 01:07:00,
2013-11-04 19:22:00,52.5,44.0,30.11,SW,227,5.0,11.0,74,0.00,,,0.00,weatherlink.com 1.10,2013-11-05 01:22:00,
2013-11-04 19:30:00,53.0,44.7,30.11,SW,225,7.0,17.0,75,0.00,,OVC037,0.00,VWS V14.01,2013-11-05 01:30:00,
2013-11-04 19:37:00,52.2,45.0,30.11,SW,218,4.0,9.0,75,0.00,,,0.00,weatherlink.com 1.10,2013-11-05 01:37:00,
2013-11-04 19:52:00,52.0,45.0,30.11,SW,221,2.0,7.0,76,0.00,,,0.00,weatherlink.com 1.10,2013-11-05 01:52:00,
2013-11-04 20:00:00,52.0,44.5,30.11,SW,225,3.0,8.0,77,0.00,,OVC037,0.00,VWS V14.01,2013-11-05 02:00:00,
2013-11-04 20:07:00,51.8,45.0,30.11,SW,227,4.0,9.0,77,0.00,,,0.00,weatherlink.com 1.10,2013-11-05 02:07:00,
2013-11-04 20:22:00,51.7,45.0,30.11,SSW,213,2.0,8.0,77,0.00,,,0.00,weatherlink.com 1.10,2013-11-05 02:22:00,
2013-11-04 20:30:00,52.0,44.7,30.11,SSW,202,3.0,9.0,77,0.00,,OVC037,0.00,VWS V14.01,2013-11-05 02:30:00,
2013-11-04 20:37:00,51.7,45.0,30.11,South,180,4.0,9.0,77,0.00,,,0.00,weatherlink.com 1.10,2013-11-05 02:37:00,
2013-11-04 20:52:00,51.5,45.0,30.12,South,190,4.0,7.0,77,0.00,,,0.00,weatherlink.com 1.10,2013-11-05 02:52:00,
2013-11-04 21:00:00,52.0,44.4,30.12,SSW,202,4.0,9.0,78,0.00,,OVC037,0.00,VWS V14.01,2013-11-05 03:00:00,
2013-11-04 21:07:00,51.4,44.0,30.12,SSW,211,3.0,10.0,77,0.00,,,0.00,weatherlink.com 1.10,2013-11-05 03:07:00,
2013-11-04 21:22:00,51.4,45.0,30.13,SW,221,2.0,9.0,78,0.00,,,0.00,weatherlink.com 1.10,2013-11-05 03:22:00,
2013-11-04 21:30:00,52.0,44.4,30.13,SSW,202,4.0,11.0,78,0.00,,OVC037,0.00,VWS V14.01,2013-11-05 03:30:00,
2013-11-04 21:38:00,51.4,44.0,30.13,South,191,4.0,9.0,77,0.00,,,0.00,weatherlink.com 1.10,2013-11-05 03:38:00,
2013-11-04 21:53:00,51.3,45.0,30.13,SW,225,2.0,7.0,78,0.00,,,0.00,weatherlink.com 1.10,2013-11-05 03:53:00,
2013-11-04 22:00:00,52.0,44.6,30.14,SW,225,4.0,9.0,79,0.00,,OVC037,0.00,VWS V14.01,2013-11-05 04:00:00,
2013-11-04 22:08:00,51.0,45.0,30.14,SW,223,5.0,7.0,79,0.00,,,0.00,weatherlink.com 1.10,2013-11-05 04:08:00,
2013-11-04 22:23:00,50.9,45.0,30.14,SW,227,2.0,8.0,79,0.00,,,0.00,weatherlink.com 1.10,2013-11-05 04:23:00,
2013-11-04 22:30:00,51.0,44.5,30.14,SW,225,3.0,9.0,80,0.00,,OVC037,0.00,VWS V14.01,2013-11-05 04:30:00,
2013-11-04 22:38:00,50.8,45.0,30.13,SSW,203,2.0,7.0,79,0.00,,,0.00,weatherlink.com 1.10,2013-11-05 04:38:00,
2013-11-04 22:53:00,50.7,45.0,30.14,SW,215,3.0,6.0,80,0.00,,,0.00,weatherlink.com 1.10,2013-11-05 04:53:00,
2013-11-04 23:00:00,51.0,44.8,30.14,SSW,202,3.0,8.0,80,0.00,,OVC037,0.00,VWS V14.01,2013-11-05 05:00:00,
2013-11-04 23:08:00,50.7,45.0,30.14,SSE,168,2.0,6.0,80,0.00,,,0.00,weatherlink.com 1.10,2013-11-05 05:08:00,
2013-11-04 23:23:00,50.6,45.0,30.14,SW,234,4.0,7.0,80,0.00,,,0.00,weatherlink.com 1.10,2013-11-05 05:23:00,
2013-11-04 23:30:00,51.0,44.8,30.14,SSW,202,4.0,8.0,80,0.00,,OVC037,0.00,VWS V14.01,2013-11-05 05:30:00,
2013-11-04 23:38:00,50.8,45.0,30.14,SSW,203,4.0,7.0,80,0.00,,,0.00,weatherlink.com 1.10,2013-11-05 05:38:00,
2013-11-04 23:53:00,50.8,45.0,30.14,South,178,2.0,7.0,80,0.00,,,0.00,weatherlink.com 1.10,2013-11-05 05:53:00,